Time,TemperatureF,DewpointF,PressureIn,WindDirection,WindDirectionDegrees,WindSpeedMPH,WindSpeedGustMPH,Humidity,HourlyPrecipIn,Conditions,Clouds,dailyrainin,SoftwareType,DateUTC
2013-07-05 10:15:00,80.7,78.5,30.18,NNE,25,0.0,0.0,93,0.04,,CLR,0.00,VWS V14.01,2013-07-05 14:15:00,
2013-07-05 10:20:00,80.7,78.2,30.18,NNE,25,0.0,0.0,92,0.00,,CLR,0.00,VWS V14.01,2013-07-05 14:20:00,
2013-07-05 10:25:00,80.6,77.7,30.19,NNE,25,0.0,0.0,91,0.00,,CLR,0.00,VWS V14.01,2013-07-05 14:25:00,
2013-07-05 10:30:00,80.8,77.9,30.19,NNE,25,0.0,0.0,91,0.00,,CLR,0.00,VWS V14.01,2013-07-05 14:30:00,
2013-07-05 10:40:00,81.7,78.2,30.18,NNE,25,0.0,0.0,89,0.00,,BKN065,0.00,VWS V14.01,2013-07-05 14:40:00,
2013-07-05 10:45:00,81.9,78.0,30.18,NNE,25,0.0,0.0,88,0.00,,BKN065,0.00,VWS V14.01,2013-07-05 14:45:00,
2013-07-05 10:50:00,82.2,78.6,30.18,NNE,25,0.0,0.0,89,0.00,,BKN065,0.00,VWS V14.01,2013-07-05 14:50:00,
2013-07-05 10:55:00,82.4,78.5,30.18,NNE,25,0.0,0.0,88,0.00,,BKN065,0.00,VWS V14.01,2013-07-05 14:55:00,
2013-07-05 11:00:00,82.4,78.1,30.18,NNE,25,0.0,0.0,87,0.00,,BKN065,0.00,VWS V14.01,2013-07-05 15:00:00,
2013-07-05 11:05:00,82.7,77.7,30.18,NNE,25,0.0,0.0,85,0.00,,SCT023,0.00,VWS V14.01,2013-07-05 15:05:00,
2013-07-05 11:10:00,83.2,78.2,30.18,NNE,25,0.0,0.0,85,0.00,,SCT023,0.00,VWS V14.01,2013-07-05 15:10:00,
2013-07-05 11:15:00,83.6,78.3,30.18,NNE,25,0.0,0.0,84,0.00,,SCT023,0.00,VWS V14.01,2013-07-05 15:15:00,
2013-07-05 11:20:00,83.9,78.2,30.18,ENE,63,0.0,2.0,83,0.00,,SCT023,0.00,VWS V14.01,2013-07-05 15:20:00,
2013-07-05 11:25:00,84.4,78.3,30.18,ENE,63,0.0,2.0,82,0.00,,SCT023,0.00,VWS V14.01,2013-07-05 15:25:00,
2013-07-05 11:30:00,84.8,78.3,30.18,ENE,63,0.0,2.0,81,0.00,,SCT023,0.00,VWS V14.01,2013-07-05 15:30:00,
2013-07-05 11:35:00,85.4,79.7,30.17,ENE,63,0.0,0.0,83,0.00,,SCT023,0.00,VWS V14.01,2013-07-05 15:35:00,
2013-07-05 11:40:00,85.9,79.8,30.17,ENE,67,0.0,0.0,82,0.00,,SCT023,0.00,VWS V14.01,2013-07-05 15:40:00,
2013-07-05 11:45:00,86.2,79.3,30.17,ENE,67,0.0,0.0,80,0.00,,SCT023,0.00,VWS V14.01,2013-07-05 15:45:00,
2013-07-05 11:50:00,86.3,79.4,30.17,ENE,67,0.0,0.0,80,0.00,,SCT023,0.00,VWS V14.01,2013-07-05 15:50:00,
2013-07-05 12:00:00,85.7,78.8,30.17,ENE,67,0.0,3.0,80,0.00,,SCT023,0.00,VWS V14.01,2013-07-05 16:00:00,
2013-07-05 12:05:00,85.2,77.9,30.17,ENE,67,0.0,4.0,79,0.00,,BKN045,0.00,VWS V14.01,2013-07-05 16:05:00,
2013-07-05 12:11:00,85.1,79.0,30.17,ENE,67,1.0,4.0,82,0.00,,BKN045,0.00,VWS V14.01,2013-07-05 16:11:00,
2013-07-05 12:15:00,85.4,78.9,30.17,ENE,67,0.0,4.0,81,0.00,,CLR,0.00,VWS V14.01,2013-07-05 16:15:00,
2013-07-05 12:16:00,85.4,78.9,30.17,ENE,67,0.0,0.0,81,0.00,,BKN045,0.00,VWS V14.01,2013-07-05 16:16:00,
2013-07-05 12:21:00,85.7,78.8,30.17,ENE,67,0.0,3.0,80,0.00,,BKN045,0.00,VWS V14.01,2013-07-05 16:21:00,
2013-07-05 12:26:00,85.8,77.8,30.17,ENE,75,2.0,4.0,77,0.00,,BKN045,0.00,VWS V14.01,2013-07-05 16:26:00,
2013-07-05 12:30:00,85.9,78.6,30.17,ENE,76,0.0,4.0,79,0.00,,CLR,0.00,VWS V14.01,2013-07-05 16:30:00,
2013-07-05 12:31:00,85.9,79.0,30.17,ENE,75,0.0,0.0,80,0.00,,BKN045,0.00,VWS V14.01,2013-07-05 16:31:00,
2013-07-05 12:36:00,86.5,78.4,30.17,ENE,75,0.0,1.0,77,0.00,,BKN045,0.00,VWS V14.01,2013-07-05 16:36:00,
2013-07-05 12:41:00,87.0,79.7,30.17,ENE,72,0.0,1.0,79,0.00,,BKN045,0.00,VWS V14.01,2013-07-05 16:41:00,
2013-07-05 12:45:00,87.2,79.5,30.17,ENE,72,1.0,1.0,78,0.00,,CLR,0.00,VWS V14.01,2013-07-05 16:45:00,
2013-07-05 12:46:00,87.2,79.5,30.17,ENE,69,2.0,2.0,78,0.00,,BKN045,0.00,VWS V14.01,2013-07-05 16:46:00,
2013-07-05 12:51:00,87.0,79.7,30.17,ENE,63,0.0,5.0,79,0.00,,BKN045,0.00,VWS V14.01,2013-07-05 16:51:00,
2013-07-05 12:56:00,87.1,80.2,30.17,ENE,68,0.0,5.0,80,0.00,,BKN045,0.00,VWS V14.01,2013-07-05 16:56:00,
2013-07-05 13:00:00,87.1,80.2,30.16,NE,48,2.0,5.0,80,0.00,,CLR,0.00,VWS V14.01,2013-07-05 17:00:00,
2013-07-05 13:01:00,87.1,79.8,30.16,NE,48,0.0,2.0,79,0.00,,BKN045,0.00,VWS V14.01,2013-07-05 17:01:00,
2013-07-05 13:06:00,87.1,79.8,30.16,East,86,0.0,2.0,79,0.00,,BKN070,0.00,VWS V14.01,2013-07-05 17:06:00,
2013-07-05 13:11:00,87.4,79.3,30.16,East,99,0.0,2.0,77,0.00,,BKN070,0.00,VWS V14.01,2013-07-05 17:11:00,
2013-07-05 13:15:00,87.5,79.4,30.16,East,99,0.0,2.0,77,0.00,,CLR,0.00,VWS V14.01,2013-07-05 17:15:00,
2013-07-05 13:16:00,87.6,79.5,30.16,East,100,0.0,0.0,77,0.00,,BKN070,0.00,VWS V14.01,2013-07-05 17:16:00,
2013-07-05 13:21:00,87.8,79.7,30.16,East,101,0.0,1.0,77,0.00,,BKN070,0.00,VWS V14.01,2013-07-05 17:21:00,
2013-07-05 13:26:00,87.9,79.8,30.16,East,94,0.0,2.0,77,0.00,,BKN070,0.00,VWS V14.01,2013-07-05 17:26:00,
2013-07-05 13:30:00,87.9,79.4,30.16,East,94,1.0,2.0,76,0.00,,CLR,0.00,VWS V14.01,2013-07-05 17:30:00,
2013-07-05 13:31:00,87.9,79.4,30.16,East,94,0.0,2.0,76,0.00,,BKN070,0.00,VWS V14.01,2013-07-05 17:31:00,
2013-07-05 13:36:00,87.7,79.2,30.16,ENE,75,0.0,4.0,76,0.00,,BKN070,0.00,VWS V14.01,2013-07-05 17:36:00,
2013-07-05 13:41:00,87.9,79.8,30.16,South,185,0.0,4.0,77,0.00,,BKN070,0.00,VWS V14.01,2013-07-05 17:41:00,
2013-07-05 13:45:00,87.9,79.4,30.15,South,180,0.0,4.0,76,0.00,,CLR,0.00,VWS V14.01,2013-07-05 17:45:00,
2013-07-05 13:46:00,87.8,79.3,30.15,South,180,0.0,0.0,76,0.00,,BKN070,0.00,VWS V14.01,2013-07-05 17:46:00,
2013-07-05 13:51:00,87.7,79.2,30.15,East,99,1.0,2.0,76,0.00,,BKN070,0.00,VWS V14.01,2013-07-05 17:51:00,
2013-07-05 13:56:00,87.7,79.2,30.15,ESE,109,0.0,4.0,76,0.00,,BKN070,0.00,VWS V14.01,2013-07-05 17:56:00,
2013-07-05 14:00:00,87.5,79.0,30.15,ESE,109,0.0,4.0,76,0.00,,CLR,0.00,VWS V14.01,2013-07-05 18:00:00,
2013-07-05 14:01:00,87.4,78.9,30.15,ESE,109,0.0,0.0,76,0.00,,BKN070,0.00,VWS V14.01,2013-07-05 18:01:00,
2013-07-05 14:06:00,87.0,79.7,30.15,SSE,157,0.0,3.0,79,0.01,,FEW038,0.01,VWS V14.01,2013-07-05 18:06:00,
2013-07-05 14:11:00,86.6,80.1,30.14,SSE,157,0.0,3.0,81,0.01,,FEW038,0.01,VWS V14.01,2013-07-05 18:11:00,
2013-07-05 14:15:00,86.1,80.3,30.14,SSE,157,0.0,3.0,83,0.01,,CLR,0.01,VWS V14.01,2013-07-05 18:15:00,
2013-07-05 14:16:00,86.0,80.2,30.14,SSE,157,0.0,0.0,83,0.01,,FEW038,0.01,VWS V14.01,2013-07-05 18:16:00,
2013-07-05 14:21:00,85.9,79.8,30.14,SSE,157,0.0,0.0,82,0.01,,FEW038,0.01,VWS V14.01,2013-07-05 18:21:00,
2013-07-05 14:26:00,86.4,79.9,30.14,SSE,149,0.0,1.0,81,0.01,,FEW038,0.01,VWS V14.01,2013-07-05 18:26:00,
2013-07-05 14:30:00,86.3,78.6,30.14,SE,140,0.0,2.0,78,0.01,,CLR,0.01,VWS V14.01,2013-07-05 18:30:00,
2013-07-05 14:37:00,85.6,78.7,30.13,SE,140,0.0,0.0,80,0.01,,FEW038,0.01,VWS V14.01,2013-07-05 18:37:00,
2013-07-05 14:42:00,85.2,79.5,30.13,SE,140,0.0,0.0,83,0.01,,FEW038,0.01,VWS V14.01,2013-07-05 18:42:00,
2013-07-05 14:45:00,85.4,79.3,30.13,NNE,12,0.0,5.0,82,0.01,,CLR,0.01,VWS V14.01,2013-07-05 18:45:00,
2013-07-05 14:47:00,85.6,79.5,30.13,ENE,70,0.0,1.0,82,0.01,,FEW038,0.01,VWS V14.01,2013-07-05 18:47:00,
2013-07-05 14:52:00,86.0,79.1,30.13,ENE,70,0.0,2.0,80,0.01,,FEW038,0.01,VWS V14.01,2013-07-05 18:52:00,
2013-07-05 14:57:00,85.6,78.7,30.13,ENE,70,0.0,2.0,80,0.01,,FEW038,0.01,VWS V14.01,2013-07-05 18:57:00,
2013-07-05 15:00:00,85.4,78.9,30.13,ENE,69,0.0,2.0,81,0.01,,CLR,0.01,VWS V14.01,2013-07-05 19:00:00,
2013-07-05 15:02:00,85.4,79.3,30.13,ENE,72,0.0,1.0,82,0.01,,BKN090,0.01,VWS V14.01,2013-07-05 19:02:00,
2013-07-05 15:07:00,86.0,79.5,30.12,East,80,0.0,1.0,81,0.01,,BKN090,0.01,VWS V14.01,2013-07-05 19:07:00,
2013-07-05 15:12:00,86.7,79.8,30.12,East,80,0.0,1.0,80,0.01,,BKN090,0.01,VWS V14.01,2013-07-05 19:12:00,
2013-07-05 15:15:00,86.8,79.9,30.12,East,80,0.0,1.0,80,0.01,,CLR,0.01,VWS V14.01,2013-07-05 19:15:00,
2013-07-05 15:17:00,86.7,79.4,30.12,East,79,0.0,0.0,79,0.00,,BKN090,0.01,VWS V14.01,2013-07-05 19:17:00,
2013-07-05 15:22:00,86.6,79.7,30.11,East,80,0.0,3.0,80,0.00,,BKN090,0.01,VWS V14.01,2013-07-05 19:22:00,
2013-07-05 15:27:00,86.0,78.7,30.11,East,79,0.0,3.0,79,0.00,,BKN090,0.01,VWS V14.01,2013-07-05 19:27:00,
2013-07-05 15:30:00,85.6,78.7,30.11,East,80,0.0,3.0,80,0.00,,CLR,0.01,VWS V14.01,2013-07-05 19:30:00,
2013-07-05 15:32:00,85.4,78.5,30.11,East,80,0.0,0.0,80,0.00,,BKN090,0.01,VWS V14.01,2013-07-05 19:32:00,
2013-07-05 15:37:00,85.2,78.7,30.11,East,79,0.0,1.0,81,0.00,,BKN090,0.01,VWS V14.01,2013-07-05 19:37:00,
2013-07-05 15:42:00,85.1,77.5,30.11,East,80,0.0,5.0,78,0.00,,BKN090,0.01,VWS V14.01,2013-07-05 19:42:00,
2013-07-05 15:45:00,85.1,77.9,30.11,East,89,0.0,5.0,79,0.00,,CLR,0.01,VWS V14.01,2013-07-05 19:45:00,
2013-07-05 15:47:00,85.3,78.4,30.11,East,89,0.0,1.0,80,0.00,,BKN090,0.01,VWS V14.01,2013-07-05 19:47:00,
2013-07-05 15:52:00,85.9,78.6,30.11,East,90,4.0,4.0,79,0.00,,BKN090,0.01,VWS V14.01,2013-07-05 19:52:00,
2013-07-05 15:57:00,85.5,78.2,30.10,WNW,284,0.0,4.0,79,0.00,,BKN090,0.01,VWS V14.01,2013-07-05 19:57:00,
2013-07-05 16:00:00,85.3,78.1,30.10,NNE,25,2.0,4.0,79,0.00,,CLR,0.01,VWS V14.01,2013-07-05 20:00:00,
2013-07-05 16:02:00,85.1,78.2,30.10,ESE,103,1.0,3.0,80,0.00,,FEW060,0.01,VWS V14.01,2013-07-05 20:02:00,
2013-07-05 16:07:00,84.6,77.8,30.10,ESE,111,0.0,7.0,80,0.00,,FEW060,0.01,VWS V14.01,2013-07-05 20:07:00,
2013-07-05 16:12:00,84.1,78.4,30.10,ESE,111,0.0,7.0,83,0.00,,FEW060,0.01,VWS V14.01,2013-07-05 20:12:00,
2013-07-05 16:15:00,83.8,78.4,30.10,ESE,111,0.0,7.0,84,0.01,,CLR,0.02,VWS V14.01,2013-07-05 20:15:00,
2013-07-05 16:17:00,83.6,78.6,30.10,ESE,111,0.0,1.0,85,0.02,,FEW060,0.03,VWS V14.01,2013-07-05 20:17:00,
2013-07-05 16:22:00,82.5,78.6,30.10,ESE,111,0.0,1.0,88,0.02,,FEW060,0.03,VWS V14.01,2013-07-05 20:22:00,
2013-07-05 16:27:00,81.5,78.3,30.11,ESE,111,0.0,1.0,90,0.02,,FEW060,0.03,VWS V14.01,2013-07-05 20:27:00,
2013-07-05 16:30:00,81.1,78.2,30.10,ESE,111,0.0,1.0,91,0.02,,CLR,0.03,VWS V14.01,2013-07-05 20:30:00,
2013-07-05 16:32:00,80.7,77.8,30.10,ESE,111,0.0,0.0,91,0.02,,FEW060,0.03,VWS V14.01,2013-07-05 20:32:00,
2013-07-05 16:37:00,80.3,77.8,30.10,ESE,111,0.0,0.0,92,0.02,,FEW060,0.03,VWS V14.01,2013-07-05 20:37:00,
2013-07-05 16:42:00,80.4,78.2,30.10,ESE,111,0.0,0.0,93,0.02,,FEW060,0.03,VWS V14.01,2013-07-05 20:42:00,
2013-07-05 16:45:00,80.6,78.7,30.10,ESE,111,0.0,0.0,94,0.02,,CLR,0.03,VWS V14.01,2013-07-05 20:45:00,
2013-07-05 16:47:00,80.7,78.8,30.10,ESE,111,0.0,0.0,94,0.02,,FEW060,0.03,VWS V14.01,2013-07-05 20:47:00,
2013-07-05 16:52:00,80.8,78.3,30.10,East,89,0.0,1.0,92,0.02,,FEW060,0.03,VWS V14.01,2013-07-05 20:52:00,
2013-07-05 16:58:00,80.9,78.4,30.10,East,89,0.0,1.0,92,0.02,,FEW060,0.03,VWS V14.01,2013-07-05 20:58:00,
2013-07-05 17:00:00,80.9,78.4,30.10,East,89,0.0,1.0,92,0.02,,CLR,0.03,VWS V14.01,2013-07-05 21:00:00,
2013-07-05 17:03:00,80.9,78.0,30.11,East,89,0.0,0.0,91,0.02,,FEW016,0.03,VWS V14.01,2013-07-05 21:03:00,
2013-07-05 17:08:00,81.1,78.6,30.11,East,89,0.0,0.0,92,0.02,,FEW016,0.03,VWS V14.01,2013-07-05 21:08:00,
2013-07-05 17:13:00,81.3,78.4,30.10,East,89,0.0,0.0,91,0.02,,FEW016,0.03,VWS V14.01,2013-07-05 21:13:00,
2013-07-05 17:15:00,81.4,78.5,30.10,East,88,0.0,0.0,91,0.02,,CLR,0.03,VWS V14.01,2013-07-05 21:15:00,
2013-07-05 17:18:00,81.5,78.3,30.11,East,88,0.0,0.0,90,0.01,,FEW016,0.03,VWS V14.01,2013-07-05 21:18:00,
2013-07-05 17:23:00,81.4,77.8,30.10,East,88,0.0,1.0,89,0.01,,FEW016,0.03,VWS V14.01,2013-07-05 21:23:00,
2013-07-05 17:28:00,81.3,77.8,30.10,East,89,0.0,1.0,89,0.01,,FEW016,0.03,VWS V14.01,2013-07-05 21:28:00,
2013-07-05 17:30:00,81.2,77.7,30.10,East,88,0.0,1.0,89,0.01,,CLR,0.03,VWS V14.01,2013-07-05 21:30:00,
2013-07-05 17:33:00,81.2,78.0,30.10,East,88,0.0,0.0,90,0.00,,FEW016,0.03,VWS V14.01,2013-07-05 21:33:00,
2013-07-05 17:38:00,81.2,78.0,30.10,East,89,0.0,0.0,90,0.00,,FEW016,0.03,VWS V14.01,2013-07-05 21:38:00,
2013-07-05 17:43:00,81.1,77.2,30.10,East,89,0.0,0.0,88,0.00,,FEW016,0.03,VWS V14.01,2013-07-05 21:43:00,
2013-07-05 17:45:00,81.1,77.2,30.10,East,88,0.0,0.0,88,0.00,,CLR,0.03,VWS V14.01,2013-07-05 21:45:00,
2013-07-05 17:48:00,81.0,76.8,30.10,East,89,0.0,0.0,87,0.00,,FEW016,0.03,VWS V14.01,2013-07-05 21:48:00,
2013-07-05 17:53:00,80.8,76.6,30.10,East,88,0.0,0.0,87,0.00,,FEW016,0.03,VWS V14.01,2013-07-05 21:53:00,
2013-07-05 17:58:00,80.7,76.5,30.11,East,89,0.0,0.0,87,0.00,,FEW016,0.03,VWS V14.01,2013-07-05 21:58:00,
2013-07-05 18:00:00,80.7,76.5,30.11,East,89,0.0,0.0,87,0.00,,CLR,0.03,VWS V14.01,2013-07-05 22:00:00,
2013-07-05 18:03:00,80.7,76.8,30.11,East,89,0.0,0.0,88,0.00,,-RA,0.03,VWS V14.01,2013-07-05 22:03:00,
2013-07-05 18:08:00,80.6,76.7,30.11,East,88,0.0,0.0,88,0.00,,-RA,0.03,VWS V14.01,2013-07-05 22:08:00,
2013-07-05 18:13:00,80.6,76.7,30.11,East,93,0.0,1.0,88,0.00,,-RA,0.03,VWS V14.01,2013-07-05 22:13:00,
2013-07-05 18:15:00,80.6,76.7,30.11,East,93,0.0,1.0,88,0.00,,CLR,0.03,VWS V14.01,2013-07-05 22:15:00,
2013-07-05 18:18:00,80.6,76.7,30.11,East,92,0.0,0.0,88,0.00,,-RA,0.03,VWS V14.01,2013-07-05 22:18:00,
2013-07-05 18:23:00,80.6,77.1,30.11,East,93,0.0,0.0,89,0.00,,-RA,0.03,VWS V14.01,2013-07-05 22:23:00,
2013-07-05 18:28:00,80.6,77.1,30.11,East,93,0.0,0.0,89,0.00,,-RA,0.03,VWS V14.01,2013-07-05 22:28:00,
2013-07-05 18:30:00,80.6,77.1,30.11,East,92,0.0,0.0,89,0.00,,CLR,0.03,VWS V14.01,2013-07-05 22:30:00,
2013-07-05 18:33:00,80.5,77.0,30.11,East,93,0.0,0.0,89,0.00,,-RA,0.03,VWS V14.01,2013-07-05 22:33:00,
2013-07-05 18:38:00,80.6,77.1,30.11,East,93,0.0,0.0,89,0.00,,-RA,0.03,VWS V14.01,2013-07-05 22:38:00,
2013-07-05 18:43:00,80.6,77.1,30.12,East,93,0.0,0.0,89,0.00,,-RA,0.03,VWS V14.01,2013-07-05 22:43:00,
2013-07-05 18:45:00,80.7,77.5,30.11,East,92,0.0,0.0,90,0.00,,CLR,0.03,VWS V14.01,2013-07-05 22:45:00,
2013-07-05 18:48:00,80.8,77.3,30.13,ESE,103,4.0,4.0,89,0.00,,-RA,0.03,VWS V14.01,2013-07-05 22:48:00,
2013-07-05 18:53:00,80.1,76.2,30.14,East,82,1.0,5.0,88,0.01,,-RA,0.04,VWS V14.01,2013-07-05 22:53:00,
2013-07-05 18:58:00,78.7,75.5,30.14,East,82,0.0,5.0,90,0.07,,-RA,0.10,VWS V14.01,2013-07-05 22:58:00,
2013-07-05 19:00:00,78.3,75.5,30.14,East,82,0.0,5.0,91,0.09,,CLR,0.12,VWS V14.01,2013-07-05 23:00:00,
2013-07-05 19:08:00,77.3,74.8,30.14,East,82,0.0,0.0,92,0.10,,BKN034,0.13,VWS V14.01,2013-07-05 23:08:00,
2013-07-05 19:14:00,76.9,74.7,30.14,East,82,0.0,0.0,93,0.10,,BKN034,0.13,VWS V14.01,2013-07-05 23:14:00,
2013-07-05 19:15:00,76.8,74.6,30.14,East,82,0.0,0.0,93,0.11,,CLR,0.14,VWS V14.01,2013-07-05 23:15:00,
2013-07-05 19:30:00,76.2,74.7,30.14,East,82,0.0,0.0,95,0.15,,CLR,0.18,VWS V14.01,2013-07-05 23:30:00,
2013-07-05 19:45:00,75.7,74.2,30.14,East,82,0.0,0.0,95,0.16,,CLR,0.19,VWS V14.01,2013-07-05 23:45:00,
2013-07-05 20:00:00,75.4,74.2,30.15,East,82,0.0,0.0,96,0.16,,CLR,0.19,VWS V14.01,2013-07-06 00:00:00,
2013-07-05 20:15:00,75.3,74.1,30.15,East,82,0.0,0.0,96,0.07,,CLR,0.19,VWS V14.01,2013-07-06 00:15:00,
2013-07-05 20:30:00,75.1,73.9,30.16,East,82,0.0,0.0,96,0.05,,CLR,0.19,VWS V14.01,2013-07-06 00:30:00,
2013-07-05 20:45:00,75.2,74.0,30.16,East,82,0.0,0.0,96,0.01,,CLR,0.19,VWS V14.01,2013-07-06 00:45:00,
2013-07-05 20:58:00,75.2,74.3,30.17,East,82,0.0,0.0,97,0.03,,BKN034,0.22,VWS V14.01,2013-07-06 00:58:00,
2013-07-05 21:00:00,75.3,74.4,30.17,East,83,0.0,0.0,97,0.16,,CLR,0.35,VWS V14.01,2013-07-06 01:00:00,
2013-07-05 21:03:00,75.2,74.3,30.16,East,83,1.0,1.0,97,0.24,,BKN075,0.43,VWS V14.01,2013-07-06 01:03:00,
2013-07-05 21:08:00,75.1,74.2,30.16,East,83,0.0,2.0,97,0.26,,BKN075,0.45,VWS V14.01,2013-07-06 01:08:00,
2013-07-05 21:15:00,74.7,73.5,30.16,East,83,0.0,2.0,96,0.27,,CLR,0.46,VWS V14.01,2013-07-06 01:15:00,
2013-07-05 21:28:00,74.3,73.4,30.16,East,83,0.0,0.0,97,0.27,,BKN075,0.46,VWS V14.01,2013-07-06 01:28:00,
2013-07-05 21:30:00,74.3,73.4,30.16,East,83,0.0,0.0,97,0.27,,CLR,0.46,VWS V14.01,2013-07-06 01:30:00,
2013-07-05 21:33:00,74.3,73.1,30.17,East,83,0.0,0.0,96,0.27,,BKN075,0.46,VWS V14.01,2013-07-06 01:33:00,
2013-07-05 21:39:00,74.3,73.4,30.17,East,83,0.0,0.0,97,0.27,,BKN075,0.46,VWS V14.01,2013-07-06 01:39:00,
2013-07-05 21:44:00,74.2,73.3,30.17,East,83,0.0,0.0,97,0.27,,BKN075,0.46,VWS V14.01,2013-07-06 01:44:00,
2013-07-05 21:45:00,74.2,73.3,30.17,East,83,0.0,0.0,97,0.27,,CLR,0.46,VWS V14.01,2013-07-06 01:45:00,
2013-07-05 21:49:00,74.2,73.3,30.17,East,83,0.0,0.0,97,0.27,,BKN075,0.46,VWS V14.01,2013-07-06 01:49:00,
2013-07-05 21:54:00,74.1,73.2,30.17,East,83,0.0,0.0,97,0.27,,BKN075,0.46,VWS V14.01,2013-07-06 01:54:00,
2013-07-05 21:59:00,74.1,73.2,30.17,East,83,0.0,0.0,97,0.27,,BKN075,0.46,VWS V14.01,2013-07-06 01:59:00,
2013-07-05 22:00:00,74.1,73.2,30.17,East,83,0.0,0.0,97,0.27,,CLR,0.46,VWS V14.01,2013-07-06 02:00:00,
2013-07-05 22:04:00,74.1,73.2,30.17,East,83,0.0,0.0,97,0.11,,BKN075,0.46,VWS V14.01,2013-07-06 02:04:00,
2013-07-05 22:09:00,74.0,73.1,30.18,East,83,0.0,0.0,97,0.11,,BKN075,0.46,VWS V14.01,2013-07-06 02:09:00,
2013-07-05 22:14:00,74.0,73.1,30.18,East,83,0.0,0.0,97,0.11,,BKN075,0.46,VWS V14.01,2013-07-06 02:14:00,
2013-07-05 22:15:00,74.0,73.1,30.18,East,83,0.0,0.0,97,0.11,,CLR,0.46,VWS V14.01,2013-07-06 02:15:00,
2013-07-05 22:19:00,74.0,73.1,30.18,East,83,0.0,0.0,97,0.00,,BKN075,0.46,VWS V14.01,2013-07-06 02:19:00,
2013-07-05 22:24:00,73.9,73.0,30.18,East,83,0.0,0.0,97,0.00,,BKN075,0.46,VWS V14.01,2013-07-06 02:24:00,
2013-07-05 22:29:00,73.9,73.0,30.18,East,83,0.0,0.0,97,0.00,,BKN075,0.46,VWS V14.01,2013-07-06 02:29:00,
2013-07-05 22:30:00,73.8,72.9,30.18,East,83,0.0,0.0,97,0.00,,CLR,0.46,VWS V14.01,2013-07-06 02:30:00,
2013-07-05 22:34:00,73.8,72.9,30.18,East,83,0.0,0.0,97,0.00,,BKN075,0.46,VWS V14.01,2013-07-06 02:34:00,
2013-07-05 22:39:00,73.7,72.8,30.18,East,82,0.0,0.0,97,0.00,,BKN075,0.46,VWS V14.01,2013-07-06 02:39:00,
2013-07-05 22:44:00,73.7,72.8,30.18,East,83,0.0,0.0,97,0.00,,BKN075,0.46,VWS V14.01,2013-07-06 02:44:00,
2013-07-05 22:45:00,73.7,72.8,30.18,East,83,0.0,0.0,97,0.00,,CLR,0.46,VWS V14.01,2013-07-06 02:45:00,
2013-07-05 22:49:00,73.7,72.8,30.18,East,83,0.0,0.0,97,0.00,,BKN075,0.46,VWS V14.01,2013-07-06 02:49:00,
2013-07-05 22:54:00,73.7,72.8,30.18,East,83,0.0,0.0,97,0.00,,BKN075,0.46,VWS V14.01,2013-07-06 02:54:00,
2013-07-05 22:59:00,73.6,72.7,30.18,East,83,0.0,0.0,97,0.00,,BKN075,0.46,VWS V14.01,2013-07-06 02:59:00,
2013-07-05 23:00:00,73.6,72.7,30.18,East,83,0.0,0.0,97,0.00,,CLR,0.46,VWS V14.01,2013-07-06 03:00:00,
2013-07-05 23:04:00,73.6,72.7,30.18,East,83,0.0,0.0,97,0.00,,CLR,0.46,VWS V14.01,2013-07-06 03:04:00,
2013-07-05 23:09:00,73.5,72.6,30.18,East,83,0.0,0.0,97,0.00,,CLR,0.46,VWS V14.01,2013-07-06 03:09:00,
2013-07-05 23:14:00,73.5,72.6,30.18,East,83,0.0,0.0,97,0.00,,CLR,0.46,VWS V14.01,2013-07-06 03:14:00,
2013-07-05 23:15:00,73.5,72.6,30.18,East,83,0.0,0.0,97,0.00,,CLR,0.46,VWS V14.01,2013-07-06 03:15:00,
2013-07-05 23:19:00,73.5,72.6,30.18,East,83,0.0,0.0,97,0.00,,CLR,0.46,VWS V14.01,2013-07-06 03:19:00,
2013-07-05 23:24:00,73.5,72.6,30.18,East,83,0.0,0.0,97,0.00,,CLR,0.46,VWS V14.01,2013-07-06 03:24:00,
2013-07-05 23:29:00,73.5,72.6,30.18,East,83,0.0,0.0,97,0.00,,CLR,0.46,VWS V14.01,2013-07-06 03:29:00,
2013-07-05 23:30:00,73.5,72.6,30.18,East,83,0.0,0.0,97,0.00,,CLR,0.46,VWS V14.01,2013-07-06 03:30:00,
2013-07-05 23:34:00,73.5,72.6,30.18,East,83,0.0,0.0,97,0.00,,CLR,0.46,VWS V14.01,2013-07-06 03:34:00,
2013-07-05 23:39:00,73.6,72.7,30.18,East,83,0.0,0.0,97,0.00,,CLR,0.46,VWS V14.01,2013-07-06 03:39:00,
2013-07-05 23:44:00,73.5,72.6,30.18,East,82,0.0,0.0,97,0.00,,CLR,0.46,VWS V14.01,2013-07-06 03:44:00,
2013-07-05 23:45:00,73.5,72.6,30.18,East,83,0.0,0.0,97,0.00,,CLR,0.46,VWS V14.01,2013-07-06 03:45:00,
2013-07-05 23:49:00,73.5,72.6,30.18,East,83,0.0,0.0,97,0.00,,CLR,0.46,VWS V14.01,2013-07-06 03:49:00,
2013-07-05 23:54:00,73.5,72.6,30.18,East,83,0.0,0.0,97,0.00,,CLR,0.46,VWS V14.01,2013-07-06 03:54:00,
2013-07-05 23:59:00,73.5,72.6,30.18,East,83,0.0,0.0,97,0.00,,CLR,0.46,VWS V14.01,2013-07-06 03:59:00,